Location: Newark
(41.8083°N, 72.2500°W)
Time: 13:01:21
(UTC+00:00)

Altair - Pass Details

Date: 06 December 2021
Orbit: 1501 x 1683 km, 47.2° (Epoch: 27 January)

Event Time Altitude Azimuth Distance (km) Brightness Sun altitude
Rises 00:59:04 0° 294° (WNW) 4,686 10.8 -40.4°
Reaches altitude 10° 01:02:08 10° 294° (WNW) 3,686 10.1 -41.0°
Enters shadow 01:09:09 58° 295° (WNW) 1,719 7.7 -42.3°
